KUIPER-00299

导读

KUIPER-00299(NORAD编号68864)是亚马逊柯伊伯计划(Project Kuiper)星座中的一颗近地轨道宽带互联网卫星。该项目计划发射超过3200颗卫星,旨在构建全球卫星互联网,与SpaceX星链竞争,为偏远地区提供网络接入。这颗卫星属于项目部署阶段的卫星,由联合发射联盟宇宙神V火箭发射进入轨道,承担卫星通信测试或服务组网任务,助力亚马逊完成2026年中期部署一半星座的监管目标,推动全球太空互联网基础设施建设。

基本信息
目录编号:
68864
目录名称:
KUIPER-00299
国际标识:
2026-095A
轨道中心:
EARTH
卫星名称:
KUIPER-00299
卫星全名:
KUIPER-00299
卫星状态:
在轨 (已飞行136 天)
发射日期:
2026-04-28 UTC
国别 :
美国 (US)
星等 :
--
该卫星已列入 空间交会检测服务 Space Conjunction Data Service (SCDS) ,当前飞行风险评估等级: 无高风险
轨道信息
数据来源 国际轨道数据 AOE轨道数据
星历时间 2026-09-09T22:33:43+0800
1天前
查看轨道信息
2026-09-10T04:00:00+0800
1天前
查看轨道信息
半长轴 7018.568km 7018.582km
偏心率 0.0002472 0.0002509
轨道倾角 51.899° 51.898°
近地点辐角 76.575° 78.274°
升交点赤经 237.280° 236.284°
平近点角 283.549° 46.960°
近地点 638.696km 638.684km
远地点 642.166km 642.206km
周期 97.529分钟 97.529分钟
每日圈数 14.764884 14.764839
详细信息
使用方式:
暂无
2D轨道图
3D轨道图
轨道高度分析图
轨道倾角分析图
轨道综合分析图
查看轨道综合分析图
交会数据列表
事件ID 空间交会对象 最接近时刻(TCA) 交会距离 交会风险概率(CRP) 交会风险指数(CRI) 操作
CDM_260906-133702-326106-886425
CZ-4 DEB (23261)
2026-09-06T
13:37:44+0000
0.666 km
远距离
5.927593E-5 中风险 0.7
CDM_260912-133404-147306-886427
2026-09-12T
13:34:28+0000
1.641 km
极远距离
3.955928E-6 低风险 0.47
CDM_260912-060106-208506-886423
2026-09-12T
06:01:40+0000
2.280 km
极远距离
2.076986E-6 低风险 0.41
与全量物体交会距离演化趋势
与全量物体交会风险概率演化趋势